Flag for U.S.A. Weather past 2 weeks in Marengo, Indiana, U.S.A.

Now
47 °F

Sunny.


Feels Like: 43 °F
Forecast: 24 / 42 °F
Wind: 7 mph from Northeast

Location: Bowling Green-Warren County Regional Airport

Current Time: Dec 21, 2014 at 2:02:25 PM

Latest Report: Dec 21, 2014 at 12:53 PM


Visibility: 10 mi

Pressure: 30.22 "Hg

Humidity: 48%

Dew point: 28 °F

Location of MarengoLocation

Historic Weather in Marengo — Graph

°F

Marengo temperature yesterday

Maximum temperature yesterday: 43 °F (at 2:53 PM)
Minimum temperature yesterday: 27 °F (at 11:53 PM)
Average temperature yesterday: 35 °F

Past Weeks' High & Low Weather Summary

 TemperatureHumidityPressure
High56 °F (Dec 15, 11:03 PM)93% (Dec 15, 12:00 AM)30.54 "Hg (Dec 15, 12:00 AM)
Low22 °F (Dec 12, 7:53 AM)44% (Dec 12, 3:53 PM)29.78 "Hg (Dec 16, 12:53 AM)
Average40 °F71%30.25 "Hg
* Reported Dec 6 12:04 PM — Dec 21 12:53 PM, Marengo, Weather by CustomWeather, © 2014

Note: Actual official high and low records may vary slightly from our data, if they occured in-between our weather recording intervals... More about our weather records

Advertising

Marengo weather history for previous 24 hours

 ConditionsComfort  
Time TempWeatherWind HumidityBarometerVisibility
12:53 PM
Dec 21
47 °FSunny.7 mph48%30.22 "Hg10 mi
11:53 AM43 °FSunny.9 mph58%30.24 "Hg10 mi
10:53 AM38 °FSunny.7 mph73%30.26 "Hg6 mi
9:53 AM32 °FSunny.6 mph82%30.28 "Hg4 mi
8:53 AM27 °FIce fog.5 mph85%30.28 "Hg4 mi
7:53 AM22 °FIce fog.No wind89%30.30 "Hg4 mi
6:53 AM24 °FIce fog.No wind84%30.29 "Hg4 mi
5:53 AM24 °FIce fog.No wind84%30.27 "Hg4 mi
4:53 AM24 °FIce fog.No wind88%30.27 "Hg4 mi
3:53 AM25 °FIce fog.No wind85%30.29 "Hg5 mi
2:53 AM25 °FIce fog.No wind85%30.29 "Hg6 mi
1:53 AM26 °FClear.No wind84%30.29 "Hg7 mi
12:53 AM27 °FClear.No wind81%30.30 "Hg9 mi
11:53 PM
Dec 20
27 °FClear.No wind85%30.31 "Hg7 mi
10:53 PM30 °FClear.No wind79%30.30 "Hg9 mi
9:53 PM29 °FClear.3 mph82%30.29 "Hg9 mi
8:53 PM30 °FClear.No wind82%30.29 "Hg10 mi
7:53 PM31 °FClear.No wind79%30.29 "Hg10 mi
6:53 PM33 °FClear.No wind72%30.28 "Hg10 mi
5:53 PM39 °FClear.No wind60%30.27 "Hg10 mi
4:53 PM42 °FClear.3 mph53%30.27 "Hg10 mi
3:53 PM43 °FPassing clouds.5 mph53%30.25 "Hg10 mi
2:53 PM43 °FOvercast.3 mph51%30.25 "Hg10 mi
Weather by CustomWeather, © 2014

See weather overviewHow to use our weather pages